CZ-4 DEB, 26235

Orbit data source: Space-Track

CZ-4 DEB, 26235 is space debris in SSO originally from a launch on Thu, 14 Oct 1999 UTC launched from the Taiyaun Space Center, China (TSC). Debris objects in space refer to the collection of defunct objects orbiting the Earth. Examples of debris include non-operational satellites, rocket bodies, and fragments generated from explosions, collisions, or faulty payload assembly.

Loading next visibility...
Identifier
26235, 1999-057DZ
Orbit
SSO
Country
Flag of CNCN / PRC
Related business
Manufacturer
Unknown
Mission
Spacecraft
Bus & Motor
Unknown
Mass
Unknown
Launch date (UTC)
1999-10-14 (26 years ago)
Launch vehicle
Unknown
Launch site
Taiyaun Space Center, China (TSC)
Object type
Payload
Rocket body
Debris
Shape & HBR
Unknown shape, 0.2 m
Radar Cross Section
Small (<0.1 m²)

Expand to show TLE details & history
Last TLE update: 16 hours ago

TLE from 16 hours ago
0 CZ-4 DEB
1 26235U 99057DZ  26036.91133238  .00093801  00000-0  32906-2 0  9998
2 26235  98.4893 202.6416 0012236 348.5853  11.5105 15.28980533384307
Epoch: 2026-02-05T21:52Z
TLE epoch observation values (Epoch: 2026-02-05T21:52:19.117Z)
Latitude
0.00003°
Longitude
98.50517°
Altitude
473.705 km
Speed
7.634 km/s
True Right ascension
13h 30m 33s
True Declination
0° 00' 00"
Sunlit
Object was in full shadow at epoch
Visualization orbit readout
Latitude
Unknown
Longitude
Unknown
Altitude
Unknown
Speed
Unknown
Apparent Right ascension
Unknown
Apparent Declination
Unknown
Sunlit
N/A
Visualization observer readout
Local Sidereal Time
16:09:01
Azimuth
Unknown
Elevation
Unknown
Doppler factor
Unknown
Orbital elements
Apogee altitude
484.249 km
Perigee altitude
467.476 km
Semi-major axis
6,853.999 km
Eccentricity
0.00122
Inclination
98.4893°
RAAN
202.6416°
Arg. of periapsis
348.5853°
True anomaly
11.53852°
Mean anomaly
11.5105°
Eccentric anomaly
11.52451°
Mean motion
3.82496 °/min
Orbital period
94.12 mins
BSTAR
0.0032906
Loading maneuver chart data...
Computing Atmospheric mass density...
Loading historical data...
Loading historical data...
Loading historical data...
Loading historical data...
Loading historical data...
Loading historical data...
Loading historical data...

Documentation

Showing up to 5 results
|